Find Starlink 3830

NORAD ID: 52363 Int'l Des: 2022-045 Owner: SPXS Country: US Constellation: starlink operational
LEOCIRCULAR

リアルタイム位置

3D地球を読み込み中...

Starlink 3830について

説明を読み込み中...

次回通過

Passes for default location (London). Set your location on the main map for personalized predictions.

高度履歴

Loading altitude history...

軌道要素

1 52363U 22045AJ 26105.09888762 -.00000972 00000-0 -42958-4 0 9996
2 52363 53.2175 35.6733 0001667 87.4950 272.6233 15.08835655221280
Epoch: Apr 15, 2026 • Age: 9 hours

現在のステータス

高度 559.5 km
速度 7.58 km/s
衛星直下点 -53.35°S, 74.46°W
打ち上げ日 Apr 29, 2022
運用期間 3.9 years
タイプ internet

技術仕様

分類 Payload
質量 297.00 kg
乾燥質量 275.00 kg
総質量 297.00 kg
長さ 0.20 m
直径 2.80 m
スパン 9.00 m
形状 Box + pan
製造者 SPXS
バスタイプ Starlink
フェーズステータス In Orbit
所有者/国 SPXS/US

Most Searched